Location: Rounton
(54.4000°N, 1.3500°W)
Time: 18:36:33
(UTC+00:00)

Altair - Pass Details

Date: 06 December 2021
Orbit: 1501 x 1683 km, 47.2° (Epoch: 16 January)

Event Time Altitude Azimuth Distance (km) Brightness Sun altitude
Rises 22:44:04 0° 281° (W) 4,654 10.3 -55.4°
Enters shadow 22:47:18 - 267° (W) 4,005 9.8 -55.6°
Reaches altitude 10° 22:49:57 10° 252° (WSW) 3,653 - -55.8°
Maximum altitude 22:52:39 12° 235° (SW) 3,523 - -56.0°
Drops below altitude 10° 22:55:21 10° 217° (SW) 3,648 - -56.2°
Sets 23:01:15 0° 188° (S) 4,638 - -56.5°
